Location: El Águila
(10.4167°N, 66.7167°W)
Time: 06:38:15
(UTC+00:00)

Cosmos 2279 Rocket - Pass Details

Date: 02 October 2022
Orbit: 964 x 978 km, 82.9° (Epoch: 26 November)

Event Time Altitude Azimuth Distance (km) Brightness Sun altitude
Rises 23:15:50 0° 354° (N) 3,668 7.1 -15.4°
Reaches altitude 10° 23:18:20 10° 353° (N) 2,721 6.4 -16.0°
Maximum altitude 23:24:34 79° 268° (W) 996 4.1 -17.5°
Drops below altitude 10° 23:30:48 10° 181° (S) 2,720 6.4 -19.1°
Sets 23:33:19 0° 180° (S) 3,666 7.0 -19.7°
